[[{"header":{"parameterUnit":"m.s-1","parameterCategory":1,"la1":30.2991,"la2":30.254,"lo1":-89.0895,"lo2":-89.0444,"dy":0.0017,"dx":0.0017,"nx":28,"ny":28,"refTime":"2025-01-09T09:00:00:Z","depth":0,"parameterNumber":2,"parameterNumberName":"U-component_of_WINDS"},"data":[0,0,0,0,0,0,0,0,0,0,0,0,0,0,0,0,0,0,0,0,0,0,0,0,0,0,0,0,0,0,0,0,0,0,0,0,0,0,0,0,0,0,0,0,0,0,0,0,0,0,0,0,0,0,0,0,0,0,5.0756,5.0757,0,5.0829,5.0829,5.083,5.0769,5.0767,5.0764,5.0762,5.0835,5.0839,5.0843,0,0,0,0,0,0,0,0,0,0,0,0,0,5.0566,5.057,5.0756,5.0757,5.0758,5.0829,5.083,5.0831,5.077,5.0767,5.0764,5.0761,5.0833,5.0839,5.0844,0,0,0,0,0,0,0,0,0,0,0,0,0,5.0644,5.0571,5.0756,5.0736,5.0735,5.0828,5.083,5.0831,5.077,5.0767,5.0763,5.0759,5.0832,5.0838,5.0844,5.0961,0,0,5.0864,5.0867,0,0,0,0,0,0,0,0,5.064,5.0651,5.0738,5.0738,5.0737,5.0786,5.0789,5.0874,5.0771,5.0757,5.0762,5.0757,5.0822,5.0829,5.0851,5.0964,5.0967,5.0865,5.0869,5.0871,5.0873,0,0,0,0,0,0,0,5.0635,5.0648,5.0785,5.074,5.0739,5.0724,5.0731,5.0805,5.081,5.0758,5.0754,5.0763,5.082,5.0845,5.0852,5.0968,5.0865,5.087,5.0874,5.0877,5.1182,5.1186,0,0,0,0,0,0,5.0631,5.0644,5.0783,5.0787,5.0678,5.073,5.0738,5.0774,5.0809,5.081,5.0766,5.076,5.0835,5.0844,5.0854,5.0993,5.0871,5.0877,5.0881,5.1178,5.1183,5.1188,0,0,0,0,0,0,5.0627,5.0644,5.078,5.0714,5.073,5.0738,5.0779,5.0778,5.0801,5.0815,5.0816,5.079,5.0833,5.0845,5.0935,5.0995,5.088,5.0886,5.1173,5.118,5.1185,5.1272,0,0,0,0,0,0,5.0622,5.0643,5.0687,5.0716,5.0734,5.0859,5.0782,5.0782,5.0813,5.0805,5.0837,5.0839,5.0831,5.0926,5.0942,5.1002,5.0891,5.1168,5.1176,5.1183,5.1264,5.1281,5.1295,0,0,0,0,0,5.0616,5.0708,5.069,5.0707,5.0789,5.0863,5.0873,5.0862,5.0818,5.0862,5.0872,5.0838,5.0986,5.0935,5.0953,5.1016,5.1164,5.1174,5.1183,5.1257,5.1278,5.1295,0,0,0,0,0,0,5.0685,5.0711,5.0691,5.0796,5.0828,5.0853,5.0908,5.0884,5.0929,5.092,5.0903,5.0911,5.1006,5.102,5.0963,5.1131,5.1068,5.1081,5.1119,5.1138,5.1153,5.1148,5.0897,0,0,0,0,0,5.0713,5.0771,5.079,5.0881,5.0898,5.0901,5.0932,5.0921,5.0953,5.0966,5.0982,5.1014,5.1068,5.1104,5.1154,5.1266,5.1273,5.1318,5.1334,5.1347,5.1358,5.142,5.1441,5.1219,5.1219,5.1219,0,0,5.0771,5.0792,5.0829,5.0896,5.0919,5.0979,5.0912,5.0979,5.1023,5.0976,5.1062,5.1075,5.111,5.1212,5.1258,5.1227,5.1421,5.1359,5.1369,5.1374,5.1432,5.1453,5.1472,5.1226,5.1224,5.1223,0,0,5.0907,5.0928,5.1007,5.1032,5.1069,5.107,5.1089,5.1118,5.1125,5.1212,5.1178,5.1231,5.1324,5.1351,5.1377,5.1526,5.1497,5.1542,5.1623,5.1684,5.1701,5.1717,5.1771,5.179,5.1554,5.1554,5.1554,0,5.0973,5.1063,5.105,5.112,5.115,5.1111,5.1191,5.1216,5.1267,5.1289,5.1254,5.1371,5.1392,5.15,5.1537,5.1559,5.158,5.1538,5.17,5.1715,5.1729,5.1781,5.1801,5.156,5.1559,5.1559,5.1558,0,5.1144,5.1207,5.1266,5.1318,5.1355,5.1429,5.1428,5.1467,5.1453,5.1458,5.1548,5.1572,5.1627,5.1652,5.1638,5.1759,5.1739,5.1702,5.1638,5.1756,5.1804,5.1823,5.1567,5.1565,5.1564,5.1562,0,0,5.1325,5.1369,5.1391,5.1415,5.1454,5.1502,5.1575,5.163,5.1664,5.1701,5.1763,5.1843,5.181,5.184,5.1829,5.1882,5.2,5.1839,5.1839,5.1868,5.2135,5.2163,5.2186,5.1981,5.1985,5.1988,5.2133,0,5.1463,5.159,5.1581,5.1701,5.176,5.1725,5.1789,5.182,5.1827,5.1878,5.1886,5.1944,5.1895,5.1913,5.1964,5.1975,5.2053,5.1964,5.2038,5.2041,5.2031,5.2211,5.224,5.2375,5.2151,5.2154,5.2157,0,5.164,5.1685,5.1811,5.1843,5.1867,5.1924,5.1975,5.2024,5.2058,5.206,5.2095,5.2076,5.215,5.2085,5.2188,5.2127,5.2157,5.2167,5.2172,5.2179,5.2106,5.2222,5.2418,5.2439,5.2186,5.2183,5.2181,0,5.1761,5.1852,5.194,5.1961,5.1999,5.2041,5.2059,5.209,5.2124,5.2168,5.219,5.2242,5.2271,5.2312,5.2308,5.226,5.2413,5.2347,5.2416,5.2417,5.245,5.2448,5.2653,5.2469,5.2469,5.2468,5.2468,0,5.1916,5.1995,5.1994,5.2048,5.2136,5.2126,5.2213,5.2226,5.2255,5.2311,5.2283,5.2337,5.2328,5.2382,5.2379,5.2466,5.2478,5.2482,5.2481,5.2485,5.2485,5.2504,5.2495,5.2474,5.2472,5.2471,5.247,0,5.2064,5.2067,5.2161,5.2191,5.22,5.2263,5.2288,5.234,5.2346,5.2418,5.2434,5.2443,5.2505,5.2505,5.2576,5.2574,5.268,5.2667,5.2668,5.2666,5.2736,5.273,5.2961,5.2992,5.2788,5.2789,5.2791,0,5.2163,5.2223,5.226,5.2296,5.2317,5.2375,5.241,5.2403,5.244,5.2486,5.2532,5.2592,5.2639,5.274,5.2753,5.2807,5.2796,5.2873,5.2804,5.2807,5.2798,5.2794,5.2801,5.2887,5.2889,5.2891,5.2893,0,5.2339,5.2338,5.2389,5.2443,5.2485,5.2526,5.2564,5.2596,5.2593,5.2636,5.27,5.2737,5.281,5.287,5.2922,5.2941,5.2917,5.2915,5.2934,5.2939,5.2937,5.294,5.2706,5.2909,5.2907,5.2906,5.2905,5.2905,5.2466,5.2518,5.2553,5.2611,5.264,5.2676,5.2727,5.2739,5.2792,5.2851,5.2844,5.2915,5.295,5.3018,5.3042,5.3097,5.307,5.3098,5.3105,5.3112,5.312,5.2928,5.3107,5.3106,5.3106,5.3106,5.3105,0,5.264,5.2661,5.2716,5.277,5.2817,5.2791,5.2832,5.2873,5.2936,5.2971,5.3018,5.3092,5.3151,5.3169,5.3226,5.3267,5.3257,5.3282,5.3279,5.3284,5.314,5.3118,5.3289,5.3289,5.3289,5.3289,5.3289,5.3289,5.2737,5.2824,5.2828,5.2929,5.2949,5.3019,5.3045,5.3079,5.3107,5.3191,5.324,5.3251,5.328,5.3339,5.3391,5.3395,5.3418,5.3447,5.3447,5.3312,5.3294,5.3276,5.3256,5.3452,5.3452,5.3586,5.3587,5.3588]},{"header":{"parameterUnit":"m.s-1","parameterCategory":1,"la1":30.2991,"la2":30.254,"lo1":-89.0895,"lo2":-89.0444,"dy":0.0017,"dx":0.0017,"nx":28,"ny":28,"refTime":"2025-01-09T09:00:00:Z","depth":0,"parameterNumber":3,"parameterNumberName":"V-component_of_WINDS"},"data":[0,0,0,0,0,0,0,0,0,0,0,0,0,0,0,0,0,0,0,0,0,0,0,0,0,0,0,0,0,0,0,0,0,0,0,0,0,0,0,0,0,0,0,0,0,0,0,0,0,0,0,0,0,0,0,0,0,0,-5.9082,-5.9084,0,-5.9276,-5.9278,-5.9281,-5.9283,-5.928,-5.9278,-5.9276,-5.9471,-5.9479,-5.9486,0,0,0,0,0,0,0,0,0,0,0,0,0,-5.871,-5.8717,-5.9082,-5.9084,-5.9087,-5.9276,-5.9278,-5.9281,-5.9283,-5.928,-5.9277,-5.9274,-5.9469,-5.9478,-5.9487,0,0,0,0,0,0,0,0,0,0,0,0,0,-5.8885,-5.8719,-5.9081,-5.911,-5.9115,-5.9275,-5.9279,-5.9282,-5.9284,-5.928,-5.9276,-5.9273,-5.9466,-5.9477,-5.9488,-5.9631,0,0,-5.9522,-5.9527,0,0,0,0,0,0,0,0,-5.8875,-5.8898,-5.9104,-5.9109,-5.9114,-5.9252,-5.9219,-5.9399,-5.9285,-5.922,-5.9275,-5.9271,-5.9401,-5.9417,-5.9462,-5.964,-5.9648,-5.9523,-5.953,-5.9535,-5.9538,0,0,0,0,0,0,0,-5.8863,-5.889,-5.9158,-5.9107,-5.9113,-5.9113,-5.9134,-5.9253,-5.9328,-5.9225,-5.9226,-5.9249,-5.9403,-5.9451,-5.9466,-5.9651,-5.9523,-5.9533,-5.954,-5.9544,-5.9958,-5.9962,0,0,0,0,0,0,-5.8845,-5.888,-5.9152,-5.9164,-5.8983,-5.9123,-5.9146,-5.9211,-5.9327,-5.9341,-5.9252,-5.9248,-5.9433,-5.9453,-5.9473,-5.9649,-5.9535,-5.9545,-5.9552,-5.9954,-5.9959,-5.9963,0,0,0,0,0,0,-5.8837,-5.8869,-5.9144,-5.9022,-5.9057,-5.9133,-5.9206,-5.9217,-5.9265,-5.9347,-5.9361,-5.9287,-5.9431,-5.9457,-5.9592,-5.9656,-5.955,-5.9561,-5.9949,-5.9955,-5.9961,-6.0001,0,0,0,0,0,0,-5.8826,-5.8866,-5.8922,-5.9024,-5.9064,-5.9261,-5.921,-5.9223,-5.9285,-5.9282,-5.9384,-5.9397,-5.943,-5.9575,-5.9603,-5.9669,-5.9569,-5.9943,-5.9952,-5.9959,-5.9994,-6.0008,-6.002,0,0,0,0,0,-5.8813,-5.8925,-5.8925,-5.8958,-5.9135,-5.9265,-5.9288,-5.9324,-5.929,-5.9346,-5.9399,-5.9394,-5.9644,-5.9589,-5.9621,-5.9691,-5.9939,-5.9949,-5.9959,-5.9989,-6.0005,-6.0019,0,0,0,0,0,0,-5.8827,-5.8938,-5.894,-5.9088,-5.9167,-5.9265,-5.9337,-5.9341,-5.943,-5.9424,-5.9465,-5.9488,-5.9622,-5.967,-5.9607,-5.9836,-5.9788,-5.9804,-5.98,-5.9816,-5.9829,-5.9814,-5.9579,0,0,0,0,0,-5.8847,-5.8944,-5.9036,-5.9157,-5.9197,-5.926,-5.9318,-5.934,-5.9423,-5.9456,-5.9519,-5.9599,-5.9696,-5.9759,-5.9852,-6.0002,-6.0024,-6.0066,-6.0078,-6.0088,-6.0102,-6.0185,-6.0204,-5.9995,-5.9995,-5.9995,0,0,-5.889,-5.8963,-5.9021,-5.9162,-5.9226,-5.9325,-5.9288,-5.9394,-5.9468,-5.9472,-5.9603,-5.9653,-5.9745,-5.9888,-5.9954,-5.9932,-6.0165,-6.01,-6.0108,-6.0116,-6.0196,-6.0216,-6.0234,-6.0001,-6.0,-5.9999,0,0,-5.9019,-5.9084,-5.9193,-5.9258,-5.9356,-5.9397,-5.9423,-5.9521,-5.9555,-5.9688,-5.9693,-5.9781,-5.9947,-6.0012,-6.0067,-6.0223,-6.0221,-6.0252,-6.0318,-6.0398,-6.0415,-6.043,-6.0485,-6.0505,-6.0265,-6.0265,-6.0265,0,-5.9059,-5.9209,-5.9248,-5.9355,-5.9416,-5.9426,-5.9537,-5.9598,-5.9721,-5.9763,-5.9737,-5.9946,-6.0009,-6.0167,-6.0205,-6.025,-6.0281,-6.024,-6.0409,-6.0425,-6.0439,-6.0493,-6.0513,-6.0268,-6.0268,-6.0268,-6.0267,0,-5.9254,-5.9358,-5.9434,-5.9554,-5.9625,-5.9733,-5.9787,-5.9854,-5.987,-5.9914,-6.0049,-6.0125,-6.0235,-6.0274,-6.029,-6.0436,-6.0419,-6.0401,-6.0353,-6.0462,-6.0512,-6.0533,-6.0273,-6.0272,-6.0271,-6.027,0,0,-5.9396,-5.9537,-5.9564,-5.962,-5.9729,-5.981,-5.9918,-6.0027,-6.0083,-6.0168,-6.0259,-6.04,-6.0385,-6.0447,-6.0471,-6.0542,-6.066,-6.0515,-6.0518,-6.0539,-6.0826,-6.0839,-6.0862,-6.066,-6.0664,-6.0668,-6.0818,0,-5.9536,-5.973,-5.9769,-5.9937,-6.0033,-6.0045,-6.014,-6.0217,-6.0261,-6.0349,-6.0397,-6.0497,-6.0468,-6.0507,-6.0577,-6.0631,-6.0718,-6.062,-6.0746,-6.075,-6.0722,-6.0888,-6.0902,-6.104,-6.0838,-6.0842,-6.0844,0,-5.9726,-5.9817,-5.9995,-6.0092,-6.0134,-6.0219,-6.0322,-6.0406,-6.0494,-6.0521,-6.0592,-6.0608,-6.0721,-6.0668,-6.0824,-6.0757,-6.081,-6.0844,-6.0851,-6.0863,-6.0803,-6.0905,-6.1085,-6.1106,-6.0876,-6.0873,-6.0871,0,-5.9812,-5.9978,-6.0107,-6.0154,-6.027,-6.033,-6.0381,-6.0465,-6.0528,-6.0618,-6.066,-6.0761,-6.0816,-6.0894,-6.0937,-6.0895,-6.109,-6.1041,-6.1115,-6.1114,-6.1155,-6.1152,-6.1346,-6.119,-6.119,-6.119,-6.1189,0,-5.9964,-6.0073,-6.0147,-6.0226,-6.0348,-6.0391,-6.0511,-6.0561,-6.0636,-6.0725,-6.0741,-6.0823,-6.0875,-6.0965,-6.0999,-6.1124,-6.1148,-6.1173,-6.1181,-6.1172,-6.1169,-6.1207,-6.1199,-6.1195,-6.1194,-6.1193,-6.1192,0,-6.008,-6.0135,-6.0276,-6.0375,-6.0403,-6.0488,-6.0573,-6.065,-6.0695,-6.0807,-6.0836,-6.0906,-6.1013,-6.1064,-6.1196,-6.1219,-6.136,-6.1361,-6.1331,-6.1334,-6.1406,-6.1398,-6.1631,-6.1664,-6.1486,-6.1488,-6.1489,0,-6.0174,-6.0258,-6.0367,-6.0429,-6.0482,-6.058,-6.0645,-6.0691,-6.0758,-6.0865,-6.0929,-6.1037,-6.1125,-6.1296,-6.1358,-6.1459,-6.1463,-6.1538,-6.1478,-6.1467,-6.1464,-6.1459,-6.1468,-6.1548,-6.155,-6.1551,-6.1552,0,-6.0335,-6.0358,-6.0452,-6.0556,-6.0633,-6.0716,-6.0798,-6.0847,-6.0906,-6.098,-6.1091,-6.116,-6.1296,-6.1403,-6.1509,-6.156,-6.1567,-6.1571,-6.1594,-6.1585,-6.1564,-6.1577,-6.136,-6.1565,-6.1564,-6.1563,-6.1562,-6.1562,-6.0443,-6.0519,-6.0608,-6.0712,-6.0779,-6.0855,-6.0933,-6.0988,-6.1081,-6.1196,-6.1217,-6.1335,-6.1421,-6.1564,-6.162,-6.1712,-6.1695,-6.1727,-6.1736,-6.1743,-6.1747,-6.155,-6.1731,-6.1731,-6.1731,-6.173,-6.173,0,-6.0605,-6.0663,-6.0759,-6.0874,-6.0956,-6.0956,-6.1047,-6.1115,-6.1218,-6.1299,-6.1386,-6.1513,-6.1617,-6.1689,-6.1794,-6.1854,-6.186,-6.188,-6.1876,-6.1888,-6.1756,-6.1726,-6.1874,-6.1874,-6.1874,-6.1874,-6.1874,-6.1874,-6.0699,-6.0827,-6.0861,-6.1022,-6.108,-6.1196,-6.1248,-6.1318,-6.1383,-6.1525,-6.1612,-6.1658,-6.1735,-6.1846,-6.1942,-6.196,-6.1998,-6.2019,-6.2037,-6.1912,-6.1897,-6.1883,-6.1855,-6.2027,-6.2027,-6.2161,-6.2162,-6.2163]}]]